Regional Weather Roundup
Issued by NWS

Home | Current Version | Previous Version | Graphics & Text | Print | Product List | Glossary On
Versions: 1 2 3 4 5 6 7 8 9 10 11 12 13 14 15 16 17 18 19 20 21 22 23 24 25 26 27
000
ASUS45 KSLC 202110
RWRUT

UTAH REGIONAL WEATHER ROUNDUP
NATIONAL WEATHER SERVICE SALT LAKE CITY UT
200 PM MST MON FEB 20 2017

UTZ001>011-023>025-202200-

NORTHERN UTAH

CITY           SKY/WX    TMP DP  RH WIND       PRES   REMARKS
BRIGHAM CITY     N/A     51  36  55 S13       30.00R
HILL AFB       CLOUDY    51  34  52 S22G29    29.99S
LOGAN          CLOUDY    50  36  58 SW13      29.98S
OGDEN          CLOUDY    52  35  52 S24       29.98S
SALT LAKE CITY CLOUDY    54  34  46 S20G37    29.96F
TOOELE VALLEY  CLOUDY    54  37  54 S32G41    29.98R
WENDOVER       PTSUNNY   55  36  47 SW20G26   29.94F
HEBER CITY     CLOUDY    52  28  40 S10G18    30.02F
WEST JORDAN    PTSUNNY   56  43  59 SE25G35   30.00F

$$

UTZ011>015-024>027-202200-

CENTRAL/NORTHEAST UTAH

CITY           SKY/WX    TMP DP  RH WIND       PRES   REMARKS
PROVO AIRPORT  PTSUNNY   55  34  45 S9        30.05F
MOAB/CANYONLAN CLOUDY    52  42  69 N6        30.15F
DELTA          CLOUDY    52  36  54 S26G37    30.05F
PRICE          CLOUDY    40  35  83 SE5       30.17F
ROOSEVELT      CLOUDY    43  36  75 E5        30.16F
VERNAL         CLOUDY    42  36  79 NE5       30.13F

$$

UTZ013>016-019>022-027-202200-

SOUTHERN UTAH

CITY           SKY/WX    TMP DP  RH WIND       PRES   REMARKS
BRYCE CANYON   CLOUDY    35  33  92 SE13      30.22F FOG     WCI  26
CEDAR CITY     MOSUNNY   51  38  60 SW21G30   30.15S
MILFORD        CLOUDY    50  37  61 SW25G32   30.11S
ST GEORGE      CLOUDY    56  44  64 NW5       30.20F
HANKSVILLE     SUNNY     52  37  58 SE6       30.17F
BLANDING       CLOUDY    47  34  59 SW8       30.31S

$$

REGIONAL REPORTS     COLORADO/ARIZONA

CITY           SKY/WX    TMP DP  RH WIND       PRES   REMARKS
CRAIG, CO      CLOUDY    46  31  55 SW17G24   30.15F
GRAND JUNCTION MOSUNNY   52  38  58 VRB3      30.17F
RIFLE, CO      CLOUDY    51  32  48 VRB3      30.17F
MONTROSE, CO   CLOUDY    53  29  39 VRB5      30.20F
CORTEZ, CO     MOSUNNY   50  36  58 NW8       30.24F
COLORADO CITY  CLOUDY    52  41  66 S10       30.25F
PAGE, AZ       CLOUDY    54  36  50 N7        30.21F
GRAND CANYON   CLOUDY    44  37  76 SW8       30.28F
KINGMAN, AZ    CLOUDY    57  38  48 S13       30.24F
FLAGSTAFF, AZ  CLOUDY    43  35  73 SW7       30.30S

$$

REGIONAL REPORTS    NEVADA/IDAHO/WYOMING

CITY           SKY/WX    TMP DP  RH WIND       PRES   REMARKS
LAS VEGAS, NV  PTSUNNY   64  44  48 S14G22    30.10F
ELY, NY        CLOUDY    43  36  76 SE23G33   30.03F
ELKO, NV       CLOUDY    48  38  68 S16G23    29.91F
POCATELLO, ID  LGT RAIN  41  37  86 S29G36    29.94R
BURLEY, ID     CLOUDY    49  36  61 S28       29.83F
FORT BRIDGER,  CLOUDY    44  30  58 E10       30.02F
EVANSTON, WY   CLOUDY    40  27  59 SW18      30.01F WCI  31
ROCK SPRINGS,  CLOUDY    45  28  51 S7        30.02F
KEMMERER, WY     N/A     39  28  65 SW14G20   30.02F WCI  31

$$




USA.gov is the U.S. government's official web portal to all federal, state and local government web resources and services.